Regional Weather Roundup
Issued by NWS Albany, NY

Home | Current Version | Previous Version | Text Only | Print | Product List | Glossary On
Versions: 1 2 3 4 5 6 7 8 9 10 11 12 13 14 15 16 17 18 19 20 21 22 23 24 25 26 27 28 29 30 31 32 33 34 35 36 37 38 39 40 41 42 43 44 45 46 47 48 49 50
000
ASUS41 KALY 010010
RWRALY

NEW YORK STATE HOURLY WEATHER ROUNDUP
NATIONAL WEATHER SERVICE ALBANY NY
800 PM EDT SAT APR 30 2016

NOTE: "FAIR" INDICATES FEW OR NO CLOUDS BELOW 12,000 FEET WITH NO
SIGNIFICANT WEATHER AND/OR NO OBSTRUCTIONS TO VISIBILITY.

NYZ032-033-038>043-046>054-057>066-NYZ062>081-082-084-010100-
EAST


CITY           SKY/WX    TMP DP  RH WIND       PRES   REMARKS
ALBANY         MOCLDY    60  37  42 SW9       30.17R
GLENS FALLS    PTCLDY    58  25  28 NE10      30.16R
POUGHKEEPSIE   PTCLDY    60  38  43 S5        30.18R
NEWBURGH       MOCLDY    59  43  55 W7        30.20R
MONTGOMERY     CLOUDY    58  42  55 SW7       30.19R
WHITE PLAINS   CLEAR     52  37  56 S6        30.22R
ISLIP          PTCLDY    49  37  63 S8        30.26R
NEW YORK CITY  PTCLDY    53  39  59 S10       30.24R
CENTRAL PARK   CLEAR     53  33  46 S7        30.26R
$$

NYZ005>009-017-018-044>046-055-056-010100-
CENTRAL


CITY           SKY/WX    TMP DP  RH WIND       PRES   REMARKS
FULTON         CLOUDY    56  30  37 CALM      30.16R
SYRACUSE       CLOUDY    57  30  35 N9        30.15R
ROME           PTCLDY    59  40  49 S7        30.16R
ELMIRA         CLOUDY    54  40  59 S5        30.17R
BINGHAMTON     CLOUDY    50  40  68 S3        30.18R
MONTICELLO     CLOUDY    54  41  62 SW3       30.20F
$$

NYZ026>034-041>043-087-010100-
NORTH


CITY           SKY/WX    TMP DP  RH WIND       PRES   REMARKS
WATERTOWN      PTCLDY    56  24  29 NE6       30.15F
FORT DRUM      NOT AVBL
MASSENA        PTCLDY    52  20  28 NE7       30.21R
SARANAC LAKE   CLEAR     49  19  30 NE8       30.16R
PLATTSBURGH    PTCLDY    49  23  36 CALM      30.21R
$$

NYZ001>004-010>016-019>021-085-010100-
WEST


CITY           SKY/WX    TMP DP  RH WIND       PRES   REMARKS
NIAGARA FALLS  CLOUDY    55  31  39 E12       30.10F
BUFFALO        CLOUDY    57  40  52 E9        30.10F
DUNKIRK        CLOUDY    55  42  61 SE10      30.09F
JAMESTOWN      PTCLDY    50  39  66 E8        30.09F
WELLSVILLE     CLOUDY    49  40  71 SE8       30.14F
ROCHESTER      CLOUDY    55  28  35 E8        30.14F
PENN YAN       CLOUDY    54  41  61 S7        30.16S
$$

             KEY
       WCI = WIND CHILL INDEX
       VSB = VISIBILITY
       HX  = HEAT INDEX
$$



USA.gov is the U.S. government's official web portal to all federal, state and local government web resources and services.